Location: ČR
(50.0000°N, 15.0000°E)
Time: 14:25:28
(UTC+00:00)

Altair - All Passes

Search period start: 25 October 2021 00:00
Search period end: 04 November 2021 00:00
Orbit: 1502 x 1682 km, 47.2° (Epoch: 24 October)

Date Brightness Start Highest point End Pass type
(mag) Time Alt. Az. Time Alt. Az. Time Alt. Az.
25 Oct - 00:19:44 10° S 00:27:07 28° SE 00:34:41 10° E visible
25 Oct - 02:21:20 10° SW 02:30:27 61° SSE 02:39:55 10° E visible
25 Oct - 04:25:21 10° W 04:34:49 77° S 04:44:41 10° E visible
25 Oct - 06:29:50 10° W 06:39:11 58° SSW 06:48:53 10° SE daylight
25 Oct - 08:35:01 10° W 08:42:35 26° SW 08:50:20 10° S daylight
25 Oct - 23:55:00 10° S 00:02:06 26° SE 00:09:21 10° E visible
26 Oct - 01:56:18 10° SW 02:05:19 58° SSE 02:14:42 10° E visible
26 Oct - 04:00:12 10° W 04:09:39 77° S 04:19:28 10° E visible
26 Oct - 06:04:40 10° W 06:14:02 60° SSW 06:23:45 10° SE daylight
26 Oct - 08:09:43 10° W 08:17:31 28° SW 08:25:31 10° S daylight
26 Oct - 23:30:17 10° S 23:37:05 24° SE 23:44:00 10° E visible
27 Oct - 01:31:15 10° SW 01:40:12 56° SSE 01:49:29 10° E visible
27 Oct - 03:35:04 10° W 03:44:27 77° S 03:54:15 10° E visible
27 Oct - 05:39:31 10° W 05:48:53 62° SSW 05:58:37 10° SE daylight
27 Oct - 07:44:26 10° W 07:52:27 30° SW 08:00:40 10° SSE daylight
27 Oct - 23:05:38 10° S 23:12:05 22° SE 23:18:37 10° E visible
28 Oct - 01:06:13 10° SW 01:15:05 53° SSE 01:24:16 10° E visible
28 Oct - 03:09:56 10° W 03:19:17 76° S 03:29:02 10° E visible
28 Oct - 05:14:21 10° W 05:23:44 64° SSW 05:33:28 10° ESE daylight
28 Oct - 07:19:11 10° W 07:27:23 32° SW 07:35:47 10° SSE daylight
28 Oct - 22:41:02 10° S 22:47:05 20° SE 22:53:11 10° E visible
29 Oct - 00:41:13 10° SW 00:49:59 51° SSE 00:59:04 10° E visible
29 Oct - 02:44:47 10° WSW 02:54:07 76° S 03:03:49 10° E visible
29 Oct - 04:49:12 10° W 04:58:35 66° SSW 05:08:20 10° ESE visible
29 Oct - 06:53:58 10° W 07:02:18 34° SW 07:10:53 10° SSE daylight
29 Oct - 22:16:30 10° SSE 22:22:04 18° SE 22:27:42 10° E visible
30 Oct - 00:16:13 10° SW 00:24:54 48° SSE 00:33:51 10° E visible
30 Oct - 02:19:39 10° WSW 02:28:56 75° S 02:38:37 10° E visible
30 Oct - 04:24:03 10° W 04:33:25 68° SSW 04:43:10 10° ESE visible
30 Oct - 06:28:44 10° W 06:37:13 37° SW 06:45:56 10° SSE daylight
30 Oct - 08:38:08 10° WSW 08:39:43 10° WSW 08:41:19 10° SW daylight
30 Oct - 21:52:05 10° SSE 21:57:05 16° SE 22:02:09 10° E night (unlit)
30 Oct - 23:51:14 10° SW 23:59:48 46° SSE 00:08:37 10° E visible
31 Oct - 01:54:32 10° WSW 02:03:47 74° S 02:13:24 10° E visible
31 Oct - 03:58:54 10° W 04:08:16 70° SSW 04:17:59 10° ESE visible
31 Oct - 06:03:32 10° W 06:12:07 39° SW 06:20:59 10° SSE daylight
31 Oct - 08:11:32 10° WSW 08:14:43 12° WSW 08:17:58 10° SW daylight
31 Oct - 21:27:46 10° SSE 21:32:07 14° SE 21:36:29 10° E night (unlit)
31 Oct - 23:26:16 10° SSW 23:34:44 43° SE 23:43:24 10° E visible
01 Nov - 01:29:25 10° WSW 01:38:38 73° S 01:48:12 10° E visible
01 Nov - 03:33:46 10° W 03:43:06 71° SSW 03:52:48 10° ESE visible
01 Nov - 05:38:20 10° W 05:47:01 41° SW 05:56:00 10° SSE daylight
01 Nov - 07:45:34 10° W 07:49:44 14° SW 07:53:58 10° SSW daylight
01 Nov - 21:03:39 10° SSE 21:07:08 13° SE 21:10:40 10° E night (unlit)
01 Nov - 23:01:20 10° SSW 23:09:40 41° SE 23:18:11 10° E visible
02 Nov - 01:04:18 10° WSW 01:13:29 71° SSE 01:22:59 10° E visible
02 Nov - 03:08:37 10° W 03:17:56 72° SSW 03:27:37 10° ESE visible
02 Nov - 05:13:10 10° W 05:21:56 43° SW 05:31:00 10° SSE visible
02 Nov - 07:19:51 10° W 07:24:44 15° SW 07:29:42 10° SSW daylight
02 Nov - 20:39:56 10° SE 20:42:11 11° ESE 20:44:26 10° ESE night (unlit)
02 Nov - 22:36:25 10° SSW 22:44:36 38° SE 22:52:57 10° E visible
03 Nov - 00:39:11 10° WSW 00:48:20 70° SSE 00:57:47 10° E visible
03 Nov - 02:43:28 10° W 02:52:47 74° S 03:02:26 10° ESE visible
03 Nov - 04:47:59 10° W 04:56:49 46° SSW 05:05:58 10° SE visible
03 Nov - 06:54:16 10° W 06:59:43 17° SW 07:05:17 10° SSW daylight
03 Nov - 22:11:31 10° SSW 22:19:33 36° SE 22:27:43 10° E visible
